Weather reports worldwide

Advertisment
Lille, France (7015): temperature & dewpoint: 20.09.2020 13:00:00 - 26.09.2020 13:00:00 (CEST)Lille, France (7015): temperature 5cm: 20.09.2020 13:00:00 - 26.09.2020 13:00:00 (CEST)Lille, France (7015): temperature -20cm & temperature -100cm: 20.09.2020 13:00:00 - 26.09.2020 13:00:00 (CEST)Lille, France (7015): wind speed & gusts: 20.09.2020 13:00:00 - 26.09.2020 13:00:00 (CEST)Lille, France (7015): wind direction: 20.09.2020 13:00:00 - 26.09.2020 13:00:00 (CEST)Lille, France (7015): reduced air pressure: 20.09.2020 13:00:00 - 26.09.2020 13:00:00 (CEST)Lille, France (7015): visibility: 20.09.2020 13:00:00 - 26.09.2020 13:00:00 (CEST)Lille, France (7015): precipitation: 20.09.2020 13:00:00 - 26.09.2020 13:00:00 (CEST)
Date & Time tt [°C] td [°C] tt 5cm [°C] tt -20cm [°C] tt -100cm [°C] ff [km/h] ff [kn] fx [km/h] fx [kn] dd ppp [hPa] vv [km] rr [mm]
26.09.2020 13:00:00 10,6 7,3 10,5 12,7 18,0 35 19 59 32 WNW 1004,6 35 -
26.09.2020 12:00:00 10,5 7,0 10,1 12,6 18,0 36 19 61 33 WNW 1004,7 32 -
26.09.2020 11:00:00 9,7 7,3 9,2 12,5 18,1 37 20 64 34 WNW 1004,3 15 -
26.09.2020 10:00:00 9,6 7,0 8,7 12,5 18,1 43 23 60 32 WNW 1004,1 14 -
26.09.2020 09:00:00 9,7 7,3 8,7 12,6 18,1 36 20 63 34 WNW 1003,5 15 -
26.09.2020 08:00:00 9,5 7,4 8,6 12,6 18,1 36 19 57 31 W 1003,0 18 -
26.09.2020 07:00:00 9,4 7,5 8,6 12,7 18,1 35 19 59 32 W 1002,6 16 -
26.09.2020 06:00:00 9,0 7,9 8,5 12,8 18,1 41 22 70 38 WNW 1002,5 6 -
26.09.2020 05:00:00 9,0 7,6 8,6 12,9 18,2 40 22 68 37 WNW 1002,3 2,9 -
26.09.2020 04:00:00 9,8 7,4 8,9 12,9 18,1 39 21 70 38 WNW 1002,1 11 -
26.09.2020 03:00:00 10,2 6,7 9,0 13,0 18,2 44 24 74 40 WNW 1001,9 14 -
26.09.2020 02:00:00 10,1 7,3 8,9 13,1 18,2 34 18 69 38 W 1002,0 17 -
26.09.2020 01:00:00 9,9 6,8 8,7 13,2 18,2 39 21 70 38 W 1002,3 24 -
26.09.2020 00:00:00 11,5 4,2 10,6 13,4 18,2 42 23 79 43 W 1002,3 48 -
25.09.2020 23:00:00 11,5 4,0 10,4 13,6 18,2 45 24 76 41 WNW 1002,3 59 -
25.09.2020 22:00:00 11,3 5,4 9,0 13,8 18,2 44 24 82 44 W 1001,9 56 -
25.09.2020 21:00:00 10,0 6,9 8,8 14,1 18,2 49 26 86 47 W 1001,7 20 -
25.09.2020 20:00:00 10,6 6,9 9,5 14,4 18,3 48 26 85 46 W 1001,5 37 -
25.09.2020 19:00:00 10,8 6,9 9,5 14,7 18,3 38 20 76 41 W 1000,8 20 -
25.09.2020 18:00:00 11,0 7,5 10,2 14,9 18,3 36 19 58 32 W 1000,4 35 -
25.09.2020 17:00:00 11,1 8,1 10,7 15,0 18,3 36 20 65 35 W 1000,3 20 0,0
25.09.2020 16:00:00 11,5 8,2 10,7 15,0 18,3 37 20 61 33 W 999,7 24 0,0
25.09.2020 15:00:00 11,3 9,4 10,5 14,8 18,3 36 19 65 35 W 999,3 18 0,0
25.09.2020 14:00:00 11,5 9,7 10,3 14,6 18,3 31 17 45 25 W 998,5 12 0,0
25.09.2020 13:00:00 12,2 9,6 11,6 14,2 18,3 29 16 45 25 W 997,9 32 0,0
25.09.2020 12:00:00 10,5 8,6 10,4 13,8 18,3 23 12 39 21 W 997,6 25 0,0
25.09.2020 11:00:00 10,6 8,7 9,7 13,5 18,3 19 11 31 17 W 996,9 48 0,0
25.09.2020 10:00:00 9,5 7,8 9,1 13,4 18,4 14 7 25 13 WSW 995,6 8 0,0
25.09.2020 09:00:00 9,8 7,4 8,6 13,3 18,4 16 9 29 15 S 995,2 60 0,0
25.09.2020 08:00:00 9,3 7,1 8,3 13,3 18,4 15 8 33 18 S 995,0 60 0,0
25.09.2020 07:00:00 9,4 6,5 8,1 13,5 18,4 22 12 36 19 S 994,7 60 0,0
25.09.2020 06:00:00 8,8 5,9 8,1 13,7 18,4 17 9 34 18 S 994,8 60 0,0
25.09.2020 05:00:00 8,6 5,9 7,7 14,0 18,4 19 10 31 17 S 995,3 60 0,0
25.09.2020 04:00:00 8,3 5,8 7,6 14,4 18,4 14 8 33 18 S 996,2 60 0,0
25.09.2020 03:00:00 8,9 6,3 8,5 14,7 18,4 21 11 35 19 S 996,3 60 0,0
25.09.2020 02:00:00 10,0 6,7 9,5 15,0 18,4 24 13 42 23 SSW 996,7 60 0,0
25.09.2020 01:00:00 10,9 7,2 10,4 15,3 18,4 27 14 44 24 SSW 996,5 60 0,0
25.09.2020 00:00:00 11,4 8,3 11,1 15,6 18,4 20 11 36 19 SSW 996,1 60 0,0
24.09.2020 23:00:00 11,7 8,2 11,4 15,9 18,4 22 12 36 19 S 996,6 60 0,0
24.09.2020 22:00:00 12,2 9,4 11,6 16,1 18,4 18 10 26 14 SSW 996,4 60 0,0
24.09.2020 21:00:00 12,5 8,2 11,7 16,4 18,4 17 9 40 21 SW 995,8 59 0,0
24.09.2020 20:00:00 14,4 10,2 12,7 16,7 18,4 21 11 34 18 SSE 996,0 37 0,2
24.09.2020 19:00:00 15,3 10,7 14,9 16,8 18,5 17 9 44 24 S 996,9 60 0,0
24.09.2020 18:00:00 15,7 10,7 15,9 17,0 18,5 24 13 38 21 S 997,7 55 0,0
24.09.2020 17:00:00 16,0 11,6 16,6 16,8 18,4 25 13 42 23 S 999,0 52 0,0
24.09.2020 16:00:00 15,3 12,2 15,1 16,4 18,4 21 11 39 21 S 999,5 35 0,0
24.09.2020 15:00:00 14,4 12,6 12,4 16,2 18,5 23 12 42 23 S 1000,4 21 0,0
24.09.2020 14:00:00 13,2 10,6 12,3 16,2 18,5 29 16 54 29 SW 1001,7 2,6 0,0
24.09.2020 13:00:00 16,2 9,4 16,6 16,0 18,5 40 22 66 36 S 1001,3 35 0,0
24.09.2020 12:00:00 16,7 9,9 16,6 15,5 18,5 38 21 58 31 S 1001,8 20 0,0
24.09.2020 11:00:00 14,5 9,5 15,1 15,1 18,5 37 20 60 32 S 1002,5 25 0,0
24.09.2020 10:00:00 12,4 8,5 11,5 15,1 18,5 33 18 49 26 S 1002,6 34 0,0
24.09.2020 09:00:00 11,5 8,7 10,5 15,3 18,5 24 13 39 21 S 1003,2 44 0,0
24.09.2020 08:00:00 10,6 8,5 10,1 15,6 18,5 22 12 41 22 S 1003,2 59 0,0
24.09.2020 07:00:00 10,8 8,6 10,5 15,9 18,5 24 13 38 20 S 1003,2 60 0,0
24.09.2020 06:00:00 11,5 9,4 11,0 16,2 18,5 18 10 33 18 S 1003,4 60 0,0
24.09.2020 05:00:00 11,8 9,4 11,3 16,5 18,5 21 12 35 19 SSW 1003,1 58 0,0
24.09.2020 04:00:00 11,8 9,5 11,4 16,8 18,5 20 11 31 17 SSW 1002,8 50 0,2
24.09.2020 03:00:00 12,0 9,7 11,4 17,3 18,5 20 11 32 17 SSW 1002,2 55 0,0
24.09.2020 02:00:00 12,6 9,4 12,0 17,7 18,5 16 9 39 21 SW 1001,5 52 0,0
24.09.2020 01:00:00 13,9 10,3 13,0 18,2 18,5 23 13 44 24 WSW 1001,1 57 0,0
24.09.2020 00:00:00 14,4 12,3 13,4 18,5 18,5 29 16 63 34 WSW 1000,5 60 0,0
23.09.2020 23:00:00 15,6 14,0 14,7 18,8 18,5 22 12 47 26 S 999,7 40 0,2
23.09.2020 22:00:00 16,4 14,9 15,6 19,0 18,5 24 13 39 21 SSW 1000,0 10 0,0
23.09.2020 21:00:00 17,0 15,3 16,1 19,3 18,5 16 9 26 14 S 1000,2 13 0,2
23.09.2020 20:00:00 17,3 15,3 16,2 19,6 18,6 17 9 48 26 S 1000,6 49 0,6
23.09.2020 19:00:00 18,6 14,5 16,4 19,7 18,5 28 15 53 29 S 1001,3 7 0,4
23.09.2020 18:00:00 21,2 12,3 21,7 19,6 18,5 33 18 50 27 S 1001,3 39 0,0
23.09.2020 17:00:00 22,0 10,8 22,6 19,5 18,5 25 13 44 24 S 1002,1 44 0,0
23.09.2020 16:00:00 21,3 12,4 22,6 19,2 18,5 19 10 45 25 SSW 1003,0 40 0,0
23.09.2020 15:00:00 20,5 13,2 20,6 18,9 18,6 26 14 49 27 SSW 1003,6 54 0,0
23.09.2020 14:00:00 19,6 13,8 18,5 18,8 18,5 31 17 44 24 SSW 1004,2 38 0,0
23.09.2020 13:00:00 18,5 14,6 16,4 18,7 18,6 22 12 37 20 SSW 1004,5 28 0,4
23.09.2020 12:00:00 18,7 14,0 18,0 18,4 18,5 23 12 41 22 SSW 1004,9 41 0,0
23.09.2020 11:00:00 18,0 13,9 17,7 18,2 18,5 29 16 46 25 S 1004,9 19 0,0
23.09.2020 10:00:00 17,8 13,5 17,7 18,1 18,5 27 14 42 23 S 1005,0 28 0,0
23.09.2020 09:00:00 16,5 13,2 15,6 18,1 18,5 16 9 25 13 S 1005,1 13 0,0
23.09.2020 08:00:00 16,0 13,1 15,7 18,2 18,5 14 7 24 13 S 1005,3 10 0,0
23.09.2020 07:00:00 15,6 13,4 15,5 18,3 18,6 12 6 21 11 S 1005,2 8 0,0
23.09.2020 06:00:00 15,7 13,5 15,2 18,3 18,6 8 4 16 8 S 1005,7 8 0,0
23.09.2020 05:00:00 15,2 13,4 14,0 18,4 18,6 9 5 14 8 S 1006,1 8 0,0
23.09.2020 04:00:00 13,8 12,2 13,2 18,5 18,5 7 4 8 4 SSE 1006,5 5 0,0
23.09.2020 03:00:00 13,3 11,5 12,1 18,8 18,6 5 3 9 5 SSE 1007,0 7 0,0
23.09.2020 02:00:00 13,6 11,5 11,6 19,2 18,6 3 1 5 3 SSE 1007,1 6 0,0
23.09.2020 01:00:00 14,8 11,9 13,6 19,5 18,6 3 2 7 4 SSE 1007,4 7 0,0
23.09.2020 00:00:00 15,4 11,0 13,8 19,9 18,6 6 3 22 12 WSW 1007,8 12 0,0
22.09.2020 23:00:00 17,2 10,8 15,8 20,3 18,6 19 10 26 14 W 1008,0 25 0,0
22.09.2020 22:00:00 17,7 6,2 15,2 20,8 18,6 10 5 16 9 W 1007,8 60 0,0
22.09.2020 21:00:00 18,5 7,0 15,5 21,4 18,6 14 7 17 9 W 1007,6 42 0,0
22.09.2020 20:00:00 20,4 7,0 18,3 21,9 18,6 11 6 14 7 W 1007,6 59 0,0
22.09.2020 19:00:00 23,6 7,6 23,2 22,2 18,7 11 6 19 11 W 1007,5 59 0,0
22.09.2020 18:00:00 24,8 9,1 27,7 22,2 18,6 7 4 21 12 SW 1007,8 47 0,0
22.09.2020 17:00:00 24,5 9,2 29,0 21,7 18,6 9 5 18 10 S 1008,4 48 0,0
22.09.2020 16:00:00 24,2 8,2 28,5 21,0 18,6 8 5 20 11 SW 1009,3 30 0,0
22.09.2020 15:00:00 23,3 8,2 28,5 20,0 18,6 9 5 23 12 SSW 1010,0 38 0,0
22.09.2020 14:00:00 21,8 9,7 25,8 19,0 18,6 6 3 15 8 S 1010,9 15 0,0
22.09.2020 13:00:00 18,1 16,9 18,0 18,3 18,6 5 3 13 7 SW 1011,5 11 0,0
22.09.2020 12:00:00 14,3 14,0 14,8 17,9 18,6 4 2 13 7 SSW 1012,2 2,8 0,0
22.09.2020 11:00:00 13,2 12,9 13,5 17,6 18,6 3 2 10 5 SSE 1012,8 0,2 0,0
22.09.2020 10:00:00 12,6 12,1 12,6 17,5 18,6 5 3 9 5 SSW 1012,9 0,1 0,0
22.09.2020 09:00:00 12,1 11,6 11,8 17,5 18,6 6 4 9 5 W 1012,6 0,1 0,0
22.09.2020 08:00:00 11,6 11,1 11,6 17,6 18,6 5 3 8 4 SW 1012,9 0,1 0,0
22.09.2020 07:00:00 11,9 11,4 11,9 17,7 18,6 5 3 10 5 WSW 1012,9 0,1 0,0
22.09.2020 06:00:00 12,0 11,4 12,0 17,8 18,6 8 4 12 6 W 1013,0 0,1 0,2
22.09.2020 05:00:00 12,1 11,5 11,4 17,9 18,6 4 2 8 4 W 1013,3 0,1 0,0
22.09.2020 04:00:00 11,3 10,5 9,4 18,2 18,6 7 4 11 6 W 1013,8 0,1 0,0
22.09.2020 03:00:00 11,5 10,4 8,9 18,5 18,6 7 4 8 5 W 1014,1 0,1 0,0
22.09.2020 02:00:00 12,2 10,9 8,9 18,9 18,6 7 4 9 5 WNW 1014,6 0,2 0,0
22.09.2020 01:00:00 12,9 11,3 10,2 19,3 18,6 6 3 12 6 WNW 1014,9 1,5 0,0
22.09.2020 00:00:00 14,1 12,0 12,4 19,8 18,6 9 5 14 8 WNW 1015,1 2,2 0,0
21.09.2020 23:00:00 15,7 12,8 13,7 20,2 18,6 10 5 18 10 NNW 1015,3 4,5 0,0
21.09.2020 22:00:00 16,7 12,2 14,6 20,8 18,6 11 6 21 11 NNW 1015,2 14 0,0
21.09.2020 21:00:00 18,2 12,0 16,5 21,3 18,6 13 7 22 12 NNW 1015,0 20 0,0
21.09.2020 20:00:00 19,8 12,1 18,2 21,8 18,6 14 8 24 13 NNW 1014,6 24 0,0
21.09.2020 19:00:00 21,9 11,6 22,2 22,1 18,6 14 8 24 13 NNW 1014,6 21 0,0
21.09.2020 18:00:00 23,8 10,8 28,5 22,1 18,6 13 7 22 12 NW 1014,5 27 0,0
21.09.2020 17:00:00 24,4 7,5 31,3 21,7 18,6 8 5 24 13 N 1014,9 22 0,0
21.09.2020 16:00:00 24,6 7,7 31,7 20,9 18,6 11 6 27 14 NW 1015,3 14 0,0
21.09.2020 15:00:00 23,8 7,4 30,3 19,9 18,6 10 5 23 13 N 1015,6 38 0,0
21.09.2020 14:00:00 22,9 7,8 29,4 18,9 18,6 11 6 39 21 N 1016,2 19 0,0
21.09.2020 13:00:00 22,2 8,7 28,0 18,0 18,6 11 6 21 11 N 1016,5 17 0,0
21.09.2020 12:00:00 20,5 9,1 23,7 17,2 18,6 13 7 21 11 N 1016,8 16 0,0
21.09.2020 11:00:00 16,9 10,0 19,6 16,8 18,6 7 4 13 7 WNW 1017,1 12 0,0
21.09.2020 10:00:00 13,0 10,0 12,1 16,6 18,6 6 3 10 6 W 1017,2 8 0,0
21.09.2020 09:00:00 10,3 8,2 8,2 16,8 18,6 4 2 9 5 SW 1017,2 4,7 0,0
21.09.2020 08:00:00 9,5 7,1 5,9 17,1 18,6 7 4 9 5 WSW 1016,9 4,2 0,0
21.09.2020 07:00:00 10,1 7,5 6,1 17,5 18,6 3 2 13 7 E 1016,7 9 0,0
21.09.2020 06:00:00 11,3 7,8 7,6 17,9 18,6 5 3 10 6 NNE 1016,4 16 0,0
21.09.2020 05:00:00 11,7 7,8 8,4 18,2 18,6 9 5 11 6 NNE 1016,4 19 0,0
21.09.2020 04:00:00 12,4 8,1 9,2 18,7 18,6 5 3 13 7 NNE 1016,7 19 0,0
21.09.2020 03:00:00 13,0 8,7 9,7 19,1 18,6 3 1 14 7 NNE 1017,0 22 0,0
21.09.2020 02:00:00 13,8 9,0 10,0 19,5 18,6 2 1 16 9 NNE 1017,0 28 0,0
21.09.2020 01:00:00 14,6 9,6 13,4 19,9 18,6 13 7 18 10 N 1017,0 30 0,0
21.09.2020 00:00:00 15,6 9,5 14,2 20,4 18,6 13 7 20 11 NNE 1017,1 36 0,0
20.09.2020 23:00:00 16,4 9,8 15,4 20,8 18,6 16 9 24 13 NNE 1017,3 43 0,0
20.09.2020 22:00:00 17,4 10,3 16,0 21,3 18,6 16 9 23 12 N 1017,3 51 0,0
20.09.2020 21:00:00 18,9 10,2 17,2 21,8 18,6 16 8 27 15 N 1016,9 59 0,0
20.09.2020 20:00:00 21,0 10,5 19,9 22,3 18,6 17 9 28 15 N 1016,3 60 0,0
20.09.2020 19:00:00 24,0 6,3 25,0 22,5 18,6 14 7 22 12 NNE 1015,6 48 0,0
20.09.2020 18:00:00 25,1 6,3 26,5 22,5 18,6 18 10 26 14 N 1015,5 39 0,0
20.09.2020 17:00:00 25,9 5,5 31,1 22,1 18,5 18 10 29 16 NNE 1015,5 52 0,0
20.09.2020 16:00:00 26,1 6,2 27,0 21,5 18,6 18 10 27 14 NNE 1015,7 52 0,0
20.09.2020 15:00:00 24,0 6,7 25,8 21,3 18,5 13 7 27 15 NE 1016,0 38 0,0
20.09.2020 14:00:00 24,2 6,9 26,8 20,8 18,5 19 10 32 17 NE 1016,1 52 0,0
20.09.2020 13:00:00 23,3 8,6 26,1 20,3 18,6 13 7 24 13 NE 1016,4 47 0,0

tt = temperature
td = dewpoint
tt 5cm = temperature 5cm
tt -20cm = temperature -20cm
tt -100cm = temperature -100cm
ff = wind speed
fx = gusts
dd = wind direction
ppp = reduced air pressure
vv = visibility
rr = precipitation

Next stations